Wind_Speed
34 35 37 39 41 41 41 41 40 40 40 39 38 35 32 30 27 26 27 28 28 29 31 32 31 29 29 31 33 36 41 48 52 51 48 48 48 48 47 47 46 45
34 37 41 43 43 42 40 40 38 38 37 37 35 33 31 29 28 27 27 29 30 29 30 30 30 30 30 29 28 30 35 41 48 51 50 48 47 47 47 46 45 44
39 41 45 46 44 41 39 39 39 38 36 34 32 30 28 28 27 28 28 29 31 31 30 30 30 30 30 28 27 28 32 36 41 48 51 49 47 46 45 45 46 45
40 40 42 42 41 39 37 37 37 37 36 34 32 29 28 28 28 28 28 29 30 31 30 30 31 31 31 31 30 30 30 33 37 42 48 50 48 46 44 43 43 45
37 37 38 37 37 37 36 36 36 35 35 34 33 31 30 29 29 28 29 29 30 31 31 31 31 32 33 34 34 33 31 32 34 37 43 48 48 46 45 43 40 41
37 37 36 34 34 35 35 35 34 33 34 34 34 33 31 29 28 28 28 28 29 29 30 31 32 33 33 34 36 35 34 34 33 34 38 44 46 46 45 44 42 40
38 37 34 32 32 33 33 33 31 31 33 34 34 33 31 29 28 27 27 27 27 27 28 30 32 33 34 35 36 35 34 33 33 33 35 38 42 44 44 44 44 42
38 37 35 32 32 32 31 30 30 30 31 34 34 33 31 31 28 26 27 27 28 27 27 28 30 32 33 35 36 35 32 31 31 32 33 34 36 39 41 42 42 43
37 35 34 33 31 30 30 29 29 29 30 32 35 34 33 31 29 28 29 29 29 29 28 28 28 29 31 34 36 35 33 31 30 30 32 33 33 34 36 37 39 41
36 34 33 32 31 30 30 29 28 28 29 32 35 36 34 33 32 32 33 34 32 30 30 30 29 28 29 31 33 34 34 32 30 29 31 32 33 33 33 34 35 37
34 32 31 32 32 31 29 27 27 27 28 31 35 37 37 36 35 35 36 37 36 34 34 33 30 29 30 30 30 31 33 33 30 30 31 32 33 33 34 34 34 34
34 31 30 31 31 29 26 26 27 27 28 30 33 37 39 39 38 39 39 39 39 39 38 35 31 29 28 29 29 29 30 32 32 31 31 32 32 33 34 34 34 34
33 31 29 29 29 26 25 26 27 28 29 30 32 35 39 41 41 41 42 41 40 39 38 35 32 28 26 26 28 28 28 30 32 32 32 31 32 32 32 33 34 35
30 29 28 27 26 26 26 27 27 27 28 29 30 32 36 39 41 42 42 42 40 38 37 36 34 31 28 27 28 28 27 28 30 32 33 32 32 31 32 33 33 33
26 26 26 25 25 26 26 25 25 25 25 25 27 29 30 34 38 41 41 41 42 42 41 39 37 35 32 29 27 26 25 26 28 30 31 31 31 30 30 30 31 31
23 23 23 23 23 23 22 21 22 22 21 22 23 24 26 28 31 34 36 37 39 40 41 39 36 34 31 28 25 24 24 25 27 28 29 29 29 28 28 28 28 29
20 18 17 17 18 18 17 18 18 17 17 17 18 19 20 22 23 24 26 28 29 30 29 29 29 27 25 23 21 21 21 21 23 25 26 27 28 28 28 27 26 27
15 13 11 11 12 13 14 13 13 12 12 12 13 14 16 17 18 19 19 18 18 17 17 19 20 21 21 20 19 19 18 19 22 23 24 25 26 26 26 26 25 25
9 7 6 7 8 8 9 9 9 8 8 7 7 7 8 8 8 7 6 6 7 9 11 14 16 18 19 19 18 17 18 19 23 24 24 24 24 24 25 25 25 26
3 2 2 2 3 4 5 5 4 2 2 1 1 2 3 4 5 5 5 4 5 6 8 11 13 15 17 18 19 19 20 21 24 26 25 24 24 24 25 26 26 27
3 3 2 0 1 0 1 0 2 3 4 5 5 6 7 5 4 3 3 5 7 8 10 12 14 15 17 19 21 21 22 23 25 27 26 26 25 26 26 27 27 28
5 5 4 3 4 5 4 4 5 5 5 6 5 4 4 2 4 6 8 10 10 11 13 14 15 16 18 19 20 21 23 24 26 27 27 27 28 28 28 28 28 29
7 8 8 8 8 7 6 6 5 4 3 3 3 2 2 5 7 8 9 10 10 11 13 13 13 14 15 16 18 19 21 23 25 26 28 28 28 29 29 29 29 30
10 11 11 10 9 9 8 7 5 2 2 1 1 2 4 6 6 7 8 9 9 9 9 10 10 10 11 13 15 16 19 22 24 25 27 27 28 29 29 29 30 30
12 12 11 10 9 9 8 6 4 2 1 2 2 3 3 3 4 4 4 6 6 6 8 9 9 9 10 11 12 14 16 20 25 27 28 29 29 29 30 31 31 32
13 12 12 11 10 10 9 7 6 4 3 2 3 3 2 1 1 1 1 3 5 8 10 10 11 11 11 11 13 15 17 20 24 27 29 29 28 28 30 31 31 32
Wind_Direction
283 283 285 285 286 284 283 284 283 280 275 268 264 265 268 266 262 261 261 260 259 256 250 244 242 241 245 251 253 253 246 235 228 225 225 227 230 233 235 239 242 244
282 283 285 287 288 286 285 284 282 280 276 268 262 262 265 263 259 258 261 262 260 258 251 242 238 242 245 246 249 255 255 246 234 227 227 227 227 230 232 236 240 242
285 285 287 288 290 288 286 284 280 277 275 267 258 258 261 259 256 257 259 260 259 257 253 244 240 241 241 242 247 250 254 254 243 232 230 230 228 227 229 232 236 239
289 285 286 287 288 288 286 286 282 275 269 262 255 254 256 255 255 257 258 260 259 257 253 246 242 239 237 238 243 246 247 252 249 238 233 233 231 228 227 229 232 235
291 287 287 287 284 284 285 287 286 277 265 256 252 251 251 252 255 256 257 258 259 258 254 248 244 242 240 239 241 244 245 247 247 243 237 235 234 231 228 227 229 231
292 290 290 288 282 280 283 285 285 277 264 253 249 248 247 250 255 255 254 256 258 260 256 249 246 244 243 242 241 241 243 244 244 244 241 238 236 235 231 229 228 228
292 290 289 286 280 278 280 283 284 276 262 251 247 246 245 247 252 253 254 256 257 260 260 253 248 245 243 243 243 242 242 242 242 243 242 239 238 237 235 233 230 229
291 288 286 282 277 275 278 281 281 274 262 251 246 245 244 244 248 251 254 255 254 255 257 254 249 245 243 243 242 242 243 242 241 242 242 239 237 238 237 236 234 232
289 285 284 280 275 274 275 277 278 273 263 252 246 244 241 239 243 247 248 249 248 250 251 249 248 245 243 242 240 239 241 241 241 242 242 240 237 236 237 237 236 234
288 283 282 278 272 269 269 273 277 273 263 252 245 243 239 236 239 242 242 242 242 244 247 247 247 247 246 243 240 238 238 238 239 241 242 241 238 236 234 235 236 236
288 283 279 275 271 270 272 273 275 271 263 254 246 242 237 235 238 239 240 239 238 239 242 244 248 253 251 247 242 240 237 237 238 238 238 238 238 236 234 233 233 234
289 283 278 274 272 273 273 271 271 269 263 255 249 243 238 237 239 240 240 240 238 239 241 245 250 253 252 249 246 242 237 237 238 238 236 235 234 235 235 234 233 233
288 284 278 273 271 269 266 264 267 268 263 257 251 245 241 240 240 242 243 244 244 243 242 245 248 249 252 253 249 244 241 239 239 239 239 237 235 233 234 235 235 234
287 283 278 273 269 265 260 261 266 270 269 262 256 252 248 246 245 245 247 248 250 250 247 246 245 247 253 256 250 245 243 243 241 241 241 241 240 236 234 234 235 236
286 280 276 271 267 262 260 264 270 274 275 268 262 259 256 253 251 251 252 253 253 254 254 251 247 248 252 252 246 243 244 244 244 243 243 243 244 242 238 235 235 236
286 278 274 272 271 268 266 270 275 278 278 272 267 263 260 257 255 254 255 255 255 255 255 253 248 246 246 244 242 244 245 244 243 243 244 243 244 243 241 237 234 234
286 278 275 276 276 272 268 271 277 280 281 277 272 267 263 260 257 256 256 256 256 255 251 244 238 233 232 235 241 246 247 247 244 242 241 242 241 241 240 239 236 233
286 276 271 267 265 264 267 275 282 285 284 279 275 271 268 266 265 264 261 256 254 247 232 222 218 217 223 233 240 242 245 251 251 245 241 241 240 240 241 241 241 239
285 270 255 248 255 261 272 285 289 289 286 280 277 277 273 268 261 256 243 223 218 215 209 212 219 223 228 235 240 242 245 252 254 251 247 245 245 246 246 246 245 244
288 252 210 225 259 267 280 292 288 285 300 338 71 99 101 104 115 119 128 152 174 200 217 226 232 236 238 240 243 243 243 246 250 251 251 250 251 251 250 249 246 244
74 86 103 131 300 293 291 199 126 105 86 84 93 108 106 95 100 126 188 211 207 215 228 235 238 240 240 241 243 243 243 245 248 251 253 254 253 252 250 248 246 245
68 74 78 79 82 82 92 116 108 88 89 99 107 125 134 171 216 220 222 219 214 218 230 238 242 244 245 246 248 249 249 251 252 254 256 256 255 253 251 250 248 246
64 76 82 86 86 78 80 96 93 84 103 120 128 152 207 231 231 230 231 235 239 242 247 250 249 249 252 252 252 252 253 254 255 255 256 256 255 255 254 252 251 250
72 83 84 83 79 75 80 87 93 118 157 183 201 233 260 266 268 265 259 257 253 247 249 247 234 234 247 254 256 258 259 259 258 257 257 257 256 255 254 253 251 250
79 83 84 82 79 80 88 100 116 145 196 260 276 278 269 268 281 276 248 241 242 242 246 239 225 227 244 259 270 273 269 264 259 257 257 257 257 256 254 253 251 250
78 77 77 80 82 79 75 75 76 73 64 44 4 345 327 290 320 343 274 250 260 270 267 258 253 252 256 268 281 285 284 276 266 261 261 261 262 261 259 257 256 254
Height
2887 2886 2883 2881 2879 2878 2877 2876 2875 2873 2872 2872 2873 2873 2873 2874 2875 2875 2876 2877 2877 2878 2879 2880 2881 2882 2883 2884 2885 2886 2888 2890 2892 2895 2898 2900 2903 2907 2910 2912 2914 2916
2882 2880 2877 2875 2872 2871 2870 2869 2868 2867 2866 2866 2867 2867 2867 2868 2869 2870 2871 2872 2872 2873 2874 2875 2876 2877 2878 2879 2880 2882 2882 2884 2886 2889 2891 2893 2896 2899 2902 2905 2908 2910
2876 2874 2871 2868 2866 2864 2863 2862 2862 2861 2860 2860 2861 2861 2862 2863 2864 2865 2866 2867 2867 2868 2869 2870 2871 2872 2873 2874 2876 2877 2877 2878 2880 2883 2884 2886 2888 2891 2894 2898 2901 2903
2869 2867 2864 2862 2859 2858 2857 2855 2854 2854 2854 2854 2855 2856 2856 2857 2858 2859 2860 2861 2862 2863 2864 2865 2866 2866 2867 2869 2870 2871 2872 2872 2874 2876 2877 2879 2882 2884 2887 2890 2893 2896
2861 2859 2857 2855 2853 2852 2850 2849 2848 2847 2848 2848 2849 2850 2851 2852 2853 2854 2855 2856 2857 2858 2859 2861 2861 2862 2863 2863 2864 2865 2866 2867 2869 2870 2871 2873 2876 2878 2880 2883 2886 2889
2854 2852 2850 2849 2847 2846 2844 2843 2842 2841 2841 2843 2844 2844 2846 2847 2848 2848 2849 2851 2852 2853 2854 2855 2856 2857 2858 2859 2859 2860 2861 2862 2864 2865 2866 2868 2870 2872 2875 2877 2879 2882
2846 2844 2843 2842 2841 2840 2839 2837 2836 2835 2836 2837 2838 2839 2840 2842 2843 2844 2845 2846 2847 2848 2849 2850 2851 2852 2853 2854 2855 2856 2856 2857 2859 2860 2861 2863 2865 2867 2869 2871 2873 2876
2838 2837 2836 2835 2834 2833 2833 2831 2830 2830 2830 2831 2832 2833 2835 2836 2838 2839 2840 2841 2842 2843 2844 2845 2845 2847 2848 2849 2850 2851 2852 2853 2854 2856 2857 2858 2860 2862 2864 2866 2868 2870
2830 2829 2828 2827 2827 2827 2827 2826 2825 2824 2824 2825 2827 2828 2829 2830 2832 2834 2835 2835 2836 2838 2839 2840 2841 2842 2843 2844 2845 2846 2848 2849 2850 2851 2852 2854 2855 2857 2859 2861 2862 2864
2822 2822 2821 2820 2820 2820 2820 2820 2819 2819 2819 2820 2821 2822 2823 2824 2826 2827 2828 2829 2831 2833 2834 2835 2836 2837 2838 2839 2840 2842 2843 2844 2845 2846 2848 2850 2851 2853 2854 2856 2857 2859
2815 2814 2814 2813 2813 2814 2815 2815 2815 2814 2813 2814 2815 2816 2818 2819 2820 2821 2822 2823 2825 2827 2828 2830 2831 2833 2834 2834 2836 2837 2838 2840 2841 2842 2843 2844 2846 2848 2849 2851 2853 2855
2807 2807 2807 2807 2807 2808 2810 2810 2810 2809 2808 2808 2809 2810 2812 2813 2814 2815 2816 2817 2819 2821 2823 2825 2827 2828 2829 2830 2831 2832 2833 2835 2836 2837 2838 2839 2841 2843 2845 2846 2848 2850
2800 2800 2800 2801 2801 2802 2803 2804 2804 2804 2803 2803 2803 2804 2805 2807 2808 2809 2810 2811 2813 2815 2818 2820 2822 2823 2824 2825 2827 2828 2829 2830 2832 2833 2834 2835 2837 2838 2840 2842 2844 2846
2793 2793 2794 2794 2795 2796 2797 2797 2798 2798 2798 2798 2798 2799 2800 2801 2802 2803 2805 2806 2808 2810 2812 2815 2817 2818 2820 2821 2822 2823 2824 2825 2827 2828 2830 2831 2833 2834 2836 2837 2839 2841
2787 2787 2787 2788 2789 2790 2791 2792 2793 2794 2794 2794 2794 2795 2795 2797 2798 2799 2800 2802 2804 2805 2807 2809 2811 2813 2815 2817 2818 2819 2820 2821 2823 2824 2826 2827 2829 2830 2832 2833 2835 2836
2781 2782 2782 2783 2785 2786 2788 2789 2789 2789 2790 2790 2790 2790 2791 2792 2793 2794 2795 2797 2798 2799 2800 2802 2805 2808 2811 2813 2814 2815 2817 2818 2819 2821 2822 2823 2825 2826 2828 2829 2831 2833
2777 2777 2779 2780 2781 2783 2784 2785 2786 2786 2786 2786 2787 2787 2787 2788 2789 2790 2791 2792 2793 2794 2795 2796 2800 2804 2807 2809 2810 2812 2813 2814 2816 2817 2818 2820 2821 2822 2823 2825 2827 2828
2773 2774 2775 2777 2778 2780 2781 2782 2783 2783 2784 2784 2784 2784 2784 2785 2785 2786 2787 2788 2789 2790 2792 2794 2797 2801 2803 2805 2807 2809 2810 2811 2812 2813 2814 2815 2817 2818 2819 2821 2823 2824
2771 2772 2773 2775 2776 2778 2779 2780 2781 2781 2782 2782 2782 2782 2782 2783 2783 2784 2785 2786 2788 2790 2792 2794 2797 2799 2801 2803 2804 2806 2807 2808 2809 2809 2810 2811 2813 2814 2815 2817 2818 2820
2770 2771 2773 2774 2776 2777 2778 2779 2780 2780 2781 2781 2781 2782 2782 2783 2783 2784 2785 2787 2788 2791 2793 2794 2796 2798 2799 2800 2802 2803 2804 2805 2805 2806 2807 2808 2809 2810 2811 2812 2814 2815
2771 2772 2773 2774 2775 2776 2777 2778 2779 2780 2781 2781 2782 2782 2783 2784 2785 2786 2786 2787 2788 2790 2792 2793 2794 2795 2796 2797 2799 2800 2801 2801 2802 2802 2803 2804 2805 2806 2807 2808 2809 2811
2772 2773 2774 2774 2775 2776 2777 2778 2779 2780 2781 2781 2782 2783 2784 2785 2785 2786 2787 2787 2788 2789 2790 2791 2792 2793 2793 2794 2795 2796 2797 2797 2798 2798 2799 2799 2801 2802 2803 2804 2805 2806
2773 2774 2774 2775 2776 2777 2778 2779 2780 2781 2781 2782 2783 2783 2784 2785 2785 2786 2786 2787 2788 2788 2788 2789 2790 2790 2791 2792 2792 2793 2793 2793 2793 2794 2794 2795 2795 2796 2798 2799 2800 2801
2774 2775 2775 2776 2777 2778 2779 2780 2780 2781 2782 2782 2783 2783 2784 2784 2784 2785 2785 2786 2786 2786 2787 2787 2788 2788 2788 2789 2789 2790 2790 2790 2790 2790 2790 2790 2791 2792 2793 2794 2795 2796
2776 2776 2777 2777 2778 2779 2779 2780 2780 2781 2782 2782 2782 2783 2783 2783 2783 2783 2784 2784 2785 2785 2785 2785 2785 2785 2786 2786 2787 2787 2787 2787 2787 2786 2786 2786 2787 2788 2789 2790 2791 2792
2777 2778 2779 2779 2779 2780 2780 2781 2781 2782 2782 2782 2783 2783 2782 2782 2782 2783 2783 2784 2784 2784 2783 2783 2782 2782 2783 2783 2784 2784 2784 2783 2782 2781 2781 2782 2783 2783 2784 2785 2786 2787